JILIN-01 GAOFEN 3D 27 (52444 NORAD) Tracking and Keplerian Element Data

This shows tracking and keplerian element data for the satellite.

Feedback or suggestion? Click here.




ElementValue
Catalog52444
NameJILIN-01 GAOFEN 3D 27
Epoch Orbit632
Epoch Day166.948022
Epoch Year2022
RAAN231.6107
Inclination97.6817
Eccentricity0.0015701
Argument of Perigee123.3219
Mean Anonmoly49.2655
Mean Motion15.09535139
Decay Rate4.377E-05
L11 52444U 22048B 22166.94802200 .00004377 00000+0 27617-3 0 9993
L22 52444 97.6817 231.6107 0015701 123.3219 49.2655 15.09535139 6327

Live tracking and technical data element details for JILIN-01 GAOFEN 3D 27 (NORAD 52444). JILIN-01 GAOFEN 3D 27 can be tracked NOW for your location showing map with azimuth and elevation plus other details from your city location.

Track the satellite on the map from your city or location and see movement details for azimuth, elevation, latitude, longitude, range, height, and movement on the map or in text.







IsCatalogInMostPopularTable: catalog: 52444, numindb: 10
Update: records affected: 1



GetName: 52444 JILIN-01 GAOFEN 3D 27

Hit Count: updated at: Sat, 25 Jun 2022 04:52:49 GMT